Back to catalog

STARLINK-11210

AliveCommunicationsVLEO
NORAD 60116·PAYLOAD·🇺🇸 United States

Launched Jun 24, 2024 from Vandenberg Space Force Base

Loading…

Next Passes (next 24 hours)

TLE

FreshSource: CelesTrak SupGP

Epoch: Sep 14, 2026, 13:56 UTC

1 60116C 24118D   26257.58104167 -.00021086  00000+0 -17375-3 0  2575
2 60116  53.1573  10.2479 0001031  92.5704  96.6921 15.69712809    17

Track STARLINK-11210 in real time with AllMySat

Download on the App Store